sat.trackr.live / text

‹ back to catalog

ONEWEB-0584

NORAD 54651 · 2022-166K

PAYLOAD ACTIVE UNKNOWN

§ Identity

Operator
Country
UK
Launch date
2022-12-08
Launch site
AFETR
Launch vehicle
Mass (kg)
RCS (m²)

Purposes: comms

External: N2YO · Heavens-Above · Gunter

§ Orbital elements

Epoch: 2026-05-25T05:27:05.516352Z

Period
108.94 min
Inclination
87.9249°
Eccentricity
0.0002109
Mean motion
13.21826111 rev/d
Perigee alt
1,176.2 km
Apogee alt
1,179.3 km
Semi-major
7,555.9 km
B*
-6.7506e-4
RAAN
248.5518°
Arg perigee
100.9607°
Mean anomaly
259.1764°
Rev number
16,848

§ Raw data

ONEWEB-05841 54651U 22166K   26145.22714718 -.00000266  00000+0 -67506-3 0  99902 54651  87.9249 248.5518 0002109 100.9607 259.1764 13.21826111168487

JSON: /api/v1/satellites/54651 · /tle

For live sub-satellite position, see the globe view (requires WebGL).

§ Visibility from observer

Set your observer location to see the next 7 days of passes ≥ 10°. The values pass through the URL so the page stays shareable.

No JS? Fill the form by hand. The geolocation button needs JavaScript.